[Iaude] MPEC N154: 2022 CQ3 [a=1.93,e=0.65,i=2.0,H=21.44]
    mpec at cfa.harvard.edu 
    mpec at cfa.harvard.edu
       
    Mon Jul 15 10:15:38 EDT 2024
    
    
  
M.P.E.C. 2024-N154                                Issued 2024 July 15, 14:14 UT
     The Minor Planet Electronic Circulars contain information on unusual
         minor planets, routine data on comets and natural satellites,
         and occasional editorial announcements.  They are published
    on behalf of Division F of the International Astronomical Union by the
          Minor Planet Center, Smithsonian Astrophysical Observatory,
                          Cambridge, MA 02138, U.S.A.
			  
             Prepared using the Tamkin Foundation Computer Network
                              MPC at CFA.HARVARD.EDU
            URL https://www.minorplanetcenter.net/    ISSN 1523-6714
                                    2022 CQ3                                    
                           Revision to MPEC 2022-C150                           
Additional Observations:
     K22C03Q  C2014 02 25.58653613 50 28.083-13 44 38.39         21.71GVEN154F51
     K22C03Q  C2014 02 25.59913913 50 26.051-13 44 30.52         21.84GVEN154F51
     K22C03Q  C2014 02 25.61174113 50 24.030-13 44 22.59         21.88GVEN154F51
     K22C03Q  C2014 03 04.54841613 31 55.151-12 23 20.91         21.30GVEN154F51
     K22C03Q  C2014 04 04.39849412 16 46.032-05 13 28.50         21.78GVEN154F51
     K22C03Q  C2014 04 04.42123412 16 43.618-05 13 13.08         21.79GVEN154F51
     K22C03Q 0C2024 07 07.60882003 14 18.296+18 41 57.00         23.57GVEN154T14
     K22C03Q 0C2024 07 08.61833903 20 32.279+19 07 18.76         23.50GVEN154T14
     K22C03Q 0C2024 07 09.61212703 26 44.635+19 31 38.94         23.87GVEN154T14
     K22C03Q 0C2024 07 13.61380503 52 22.838+21 02 23.55         23.21GVEN154T14
Observer details:
F51 Pan-STARRS 1, Haleakala.  Observers J. Herman, T. Lowe, P. Minguez, A.
    Schultz, I. Smith.  Measurers K. Chambers, T. de Boer, J. Fairlamb, H.
    Gao, M. Huber, C.-C. Lin, E. Magnier, Y. Ramanjooloo, R. Wainscoat, R.
    Weryk.  1.8-m Ritchey-Chretien + CCD.
T14 Canada-France-Hawaii Telescope, Maunakea.  Observers H. Januszewski, L.
    Wells, J. Silva.  Measurer D. J. Tholen.  3.6-m f/4.1 reflector + 1024 x
    2306 pixels Megacam.
First and last observations above in comparison with prediction:
Residuals in seconds of arc (or two decimals in degrees), reference and Delta-T
140225 F51 0.15+ 0.05+    240713 T14 0.10+ 0.02+    MPO733856   +0.04 days
Orbital elements:
2022 CQ3                                            PHA, Earth MOID = 0.0004 AU
Epoch 2024 Mar. 31.0 TT = JDT 2460400.5                 Veres                   
M 307.83070              (2000.0)            P               Q                  
n   0.36887779     Peri.   99.33679     +0.37069770     -0.92858565             
a   1.9255186      Node   328.88618     +0.83813804     +0.34266184             
e   0.6546716      Incl.    1.95858     +0.40013477     +0.14251859             
P   2.67           H   21.44          G   0.15           U   0                  
Residuals in seconds of arc
140225 F51  0.0   0.0     220212 I52  0.1-  0.2+    220228 I52  0.2+  0.1+
140225 F51  0.1-  0.0     220212 I52  0.2-  0.7-    220228 I52  0.0   0.0
140225 F51  0.1-  0.0     220213 807  0.0   0.1-    220304 807  0.1+  0.2-
140304 F51  0.2-  0.0     220213 807  0.0   0.0     220304 807  0.0   0.1-
140404 F51  0.1+  0.1-    220213 807  0.2-  0.2-    220304 807  0.1-  0.2-
140404 F51  0.3+  0.3-    220213 291  0.3-  0.1-    220305 T12  0.0   0.0
220202 F52  0.2-  0.2+    220213 291  0.2-  0.1-    220307 291  0.1-  0.2+
220202 F52  0.1+  0.1+    220213 291  0.1-  0.0     220307 291  0.0   0.1-
220202 F52  0.1-  0.1+    220213 I52  0.5+  0.3+    220307 I52  0.2-  0.2-
220202 F52  0.1-  0.1+    220213 I52 (0.5+  1.9-)   220307 I52  0.0   1.0-
220204 F52  0.0   0.0     220213 I52  0.0   0.2-    220307 I52  0.1-  0.1-
220204 F52  0.1+  0.1-    220213 I52  0.2-  0.1+    220307 I52  0.4-  0.3+
220204 F52  0.1+  0.1+    220214 695  0.0   0.1-    220307 T12  0.0   0.0
220204 F52  0.0   0.0     220214 695  0.0   0.0     220307 T12  0.0   0.0
220205 691  0.9+  0.0     220214 695  0.0   0.0     220310 691  0.3+  0.1-
220205 691  1.1+  0.1+    220215 I52  0.1-  0.3+    220310 691  0.1+  0.2+
220205 691  1.0+  0.5-    220215 I52  0.3-  0.2+    220310 691 (0.5+  1.3+)
220205 568  0.0   0.0     220215 I52  0.3+  0.2+    220323 691  0.2-  0.1-
220205 568  0.0   0.0     220215 I52  0.4+  0.6+    220323 I52  0.2-  0.2-
220205 568  0.1+  0.0     220220 691  0.0   0.3+    220323 I52  0.1-  0.4+
220206 807 (0.3-  0.9+)   220220 691  0.1-  0.5+    220323 691  0.5-  0.1-
220206 807  0.2+  0.1+    220224 807  0.0   0.1-    220323 I52 (0.7+  1.1+)
220206 807  0.0   0.0     220224 807  0.1+  0.1-    220323 691  0.3-  0.3-
220208 807  0.0   0.3+    220224 807  0.1+  0.1-    220324 G96  0.6+  0.6+
220208 807  0.1-  0.0     220224 474  0.0   0.8+    220324 G96  0.3+  0.5+
220208 807  0.1-  0.3-    220224 474  0.5-  0.3+    220324 G96  0.2-  0.3+
220208 I52  0.4+  0.2-    220224 474  0.0   0.0     220325 691  0.2-  0.2+
220208 I52 (1.4+  0.4-)   220225 291  0.1+  0.1-    220325 691  0.1-  0.4+
220208 I52  0.2-  0.0     220225 291  0.3-  0.0     220325 691  0.0   0.5-
220208 I52  0.1+  0.3+    220225 291  0.0   0.1-    220326 691  0.1-  0.3+
220209 Z84  0.2-  0.1+    220225 G37  0.0   0.1-    220326 691  0.4+  0.2+
220209 Z84  0.2-  0.0     220225 G37  0.0   0.1-    220326 691  0.1+  0.0
220210 691  0.1-  0.1+    220226 291  0.2-  0.1+    220401 691  0.0   0.1+
220210 691  0.7-  0.4-    220226 291  0.0   0.0     220401 691  0.4-  0.3+
220210 I52  0.1+  0.0     220226 291  0.0   0.5+    220401 691  1.0+  0.5+
220210 I52  0.1+  0.2-    220226 T12  0.1-  0.0     220402 291  0.3+  0.1-
220210 I52  0.2-  0.1+    220226 T12  0.1+  0.0     220402 291  0.0   0.2+
220211 I52 (1.4-  0.3+)   220226 T12  0.0   0.0     220402 291  0.1+  0.2+
220211 I52  0.1+  0.4+    220228 807  0.2-  0.1+    240707 T14  0.0   0.0
220212 291  0.1+  0.1+    220228 807  0.2-  0.1+    240708 T14  0.0   0.0
220212 291  0.0   0.3-    220228 807 (0.7-  0.6-)   240709 T14  0.0   0.0
220212 291  0.2-  0.1+    220228 I52  0.1-  0.1+    240713 T14  0.0   0.0
Ephemeris:
2022 CQ3                 a,e,i = 1.93, 0.65, 2                   q = 0.6649
Date    TT    R. A. (2000) Decl.     Delta      r    Elong.  Phase     V
2024 06 15    01 15 22.2 +08 02 42   1.2310  1.1985    63.6    49.4    24.1
...
2024 06 30    02 29 46.9 +15 15 10   1.1057  1.0378    58.4    56.5    23.8
...
2024 07 08    03 16 41.9 +18 51 51   1.0720  0.9531    54.2    59.9    23.6
...
2024 07 14    03 54 53.5 +21 10 28   1.0641  0.8916    50.7    61.9    23.5
2024 07 15    04 01 28.0 +21 30 45   1.0644  0.8817    50.1    62.1    23.5
2024 07 16    04 08 05.5 +21 50 07   1.0650  0.8718    49.5    62.4    23.5
...
2024 07 22    04 48 41.8 +23 25 00   1.0782  0.8149    45.7    63.1    23.4
...
2024 07 30    05 43 53.2 +24 27 43   1.1193  0.7482    40.7    62.2    23.3
...
2024 08 14    07 23 38.8 +23 06 07   1.2558  0.6713    32.2    53.6    23.0
A. U. Tomatic                (C) Copyright 2024 MPC           M.P.E.C. 2024-N154
    
    
More information about the Iaude
mailing list